STARLINK-5666, 55349

Orbit data source: Space-Track

STARLINK-5666, 55349 is a payload satellite owned by SpaceX/Seattle (US) in LEO that was launched on Thu, 26 Jan 2023 UTC via an FALCON 9 launch vehicle from the Air Force Eastern Test Range (AFETR). Payload-class satellites include a variety of spacecraft equipped with specific instruments for various scientific and technological missions. These include communications satellites like Starlink; space stations such as the ISS; scientific satellites like the Hubble; Earth observation satellites from companies like Planet Labs, Umbra, and HawkEye 360; GPS; miniature CubeSats for education and research; and military/defense satellites.

Loading next visibility...
Identifier
55349, 2023-013U
Orbit
LEO
Country
Flag of USUS
Related business
Manufacturer
SpaceX/Seattle
Mission
Operational Commercial Communications
Bus & Motor
STARLINK, Unknown motor
Mass
305 kg wet, ~290 kg dry
Launch date (UTC)
2023-01-26 (3 years ago)
Launch vehicle
FALCON 9
Launch site
Air Force Eastern Test Range (AFETR)
Object type
Payload
Rocket body
Debris
Shape & HBR
Box + 1 Pan, 10.1 m
Radar Cross Section
13.562 m², Large (>1 m²)

Expand to show TLE details & history
Last TLE update: 3 days ago

TLE from 3 days ago
0 STARLINK-5666
1 55349U 23013U   26170.81433577 -.00000085  00000-0  64489-5 0  9999
2 55349  43.0061  86.5255 0001334 263.3589  96.7111 15.27577723187298
Epoch: 2026-06-19T19:32Z
TLE epoch observation values (Epoch: 2026-06-19T19:32:38.610Z)
Latitude
-0.00001°
Longitude
-114.6733°
Altitude
482.939 km
Speed
7.626 km/s
True Right ascension
05h 46m 06s
True Declination
0° 00' 00"
Sunlit
Object was in daylight at epoch
Visualization orbit readout
Latitude
Unknown
Longitude
Unknown
Altitude
Unknown
Speed
Unknown
Apparent Right ascension
Unknown
Apparent Declination
Unknown
Sunlit
N/A
Visualization observer readout
Local Sidereal Time
21:43:09
Azimuth
Unknown
Elevation
Unknown
Doppler factor
Unknown
Orbital elements
Apogee altitude
485.916 km
Perigee altitude
484.085 km
Semi-major axis
6,863.137 km
Eccentricity
0.00013
Inclination
43.0061°
RAAN
86.5255°
Arg. of periapsis
263.3589°
True anomaly
96.72628°
Mean anomaly
96.7111°
Eccentric anomaly
96.71869°
Mean motion
3.81733 °/min
Orbital period
94.31 mins
BSTAR
0.0000064489
Loading maneuver chart data...
Computing Atmospheric mass density...
Loading historical data...
Loading historical data...
Loading historical data...
Loading historical data...
Loading historical data...
Loading historical data...
Loading historical data...

Documentation

Showing up to 5 results
|